This is the latest recevied weather packets stored in our database for station/object KG7BDA. If no packets are shown the sender has not sent any weather packets the latest 10 day(s).
| Time | Temp. | Humidity | Pressure | Rain* | Wind** | Luminosity | Snow |
|---|---|---|---|---|---|---|---|
| 1777931839 | 23.89° C | 27% | 1007 hPa | 0 mm | - | - | - |
| 1777931478 | 23.89° C | 29% | 1006.9 hPa | 0 mm | - | - | - |
| 1777931119 | 23.89° C | 29% | 1007.1 hPa | 0 mm | - | - | - |
| 1777930759 | 23.33° C | 30% | 1007 hPa | 0 mm | - | - | - |
| 1777930398 | 23.33° C | 29% | 1007.3 hPa | 0 mm | - | - | - |
| 1777930038 | 23.33° C | 32% | 1007.4 hPa | 0 mm | - | - | - |
| 1777929679 | 23.33° C | 32% | 1007.4 hPa | 0 mm | - | - | - |
| 1777929319 | 23.33° C | 28% | 1007.5 hPa | 0 mm | - | - | - |
| 1777928958 | 23.33° C | 29% | 1007.7 hPa | 0 mm | - | - | - |
| 1777928599 | 23.33° C | 33% | 1007.7 hPa | 0 mm | - | - | - |
| 1777928238 | 23.33° C | 32% | 1007.8 hPa | 0 mm | - | - | - |
| 1777927878 | 23.33° C | 32% | 1007.9 hPa | 0 mm | - | - | - |
| 1777927519 | 22.78° C | 30% | 1008 hPa | 0 mm | - | - | - |
| 1777927158 | 22.78° C | 34% | 1008.1 hPa | 0 mm | - | - | - |
| 1777926799 | 22.78° C | 31% | 1008.2 hPa | 0 mm | - | - | - |
| 1777926438 | 22.78° C | 31% | 1008.1 hPa | 0 mm | - | - | - |
| 1777926078 | 22.78° C | 33% | 1008.1 hPa | 0 mm | - | - | - |
| 1777925760 | 22.22° C | 32% | 1008.3 hPa | 0 mm | - | - | - |
| 1777925719 | 22.22° C | 32% | 1008.3 hPa | 0 mm | - | - | - |
| 1777925359 | 22.22° C | 35% | 1008.3 hPa | 0 mm | - | - | - |
| 1777924998 | 22.22° C | 33% | 1008.4 hPa | 0 mm | - | - | - |
| 1777924639 | 22.22° C | 34% | 1008.6 hPa | 0 mm | - | - | - |
| 1777924279 | 22.22° C | 38% | 1008.5 hPa | 0 mm | - | - | - |
| 1777923918 | 21.67° C | 35% | 1008.5 hPa | 0 mm | - | - | - |
| 1777923558 | 21.67° C | 36% | 1008.4 hPa | 0 mm | - | - | - |
* Rain latest hour (hover to see other rain measurements)
** Current wind speed in m/s (hover to see current wind gust speed)